DO5RS-5 Weather Reports


Display with metric or nautical units.
time (UTC)temp
F
wind
direction
speed
MPH
gust
MPH
rain 1hr
in
rain 24hr
in
rain mn
in
humidity
%
barometer
mb
20260506071905 58 0.0 0.0 0.00 0.00 0.00 95 1008.2
20260506070904 58 0.0 0.0 0.00 0.00 0.00 96 1008.2
20260506043904 57 0.0 0.0 0.00 0.00 0.00 97 1008.3
20260506042909 58 0.0 0.0 0.00 0.00 0.00 96 1008.2
20260506040905 58 0.0 0.0 0.00 0.00 0.00 96 1008.3
20260506035904 58 0.0 0.0 0.00 0.00 0.00 95 1008.3
20260506034904 58 0.0 0.0 0.00 0.00 0.00 94 1008.1
20260506033903 58 0.0 0.0 0.00 0.00 0.00 95 1008.2
20260506032904 58 0.0 0.0 0.00 0.00 0.00 95 1008.3
20260506031909 58 0.0 0.0 0.00 0.00 0.00 95 1008.2
20260506025907 58 0.0 0.0 0.00 0.00 0.00 96 1008.3
20260506024906 58 0.0 0.0 0.00 0.00 0.00 96 1008.4
20260506023910 58 0.0 0.0 0.00 0.00 0.00 96 1008.3
20260506020905 59 0.0 0.0 0.00 0.00 0.00 95 1008.5
20260506015910 59 0.0 0.0 0.00 0.00 0.00 97 1008.4
20260506013906 59 0.0 0.0 0.00 0.00 0.00 98 1008.5
20260506012905 59 0.0 0.0 0.00 0.00 0.00 96 1008.5
20260506011905 59 0.0 0.0 0.00 0.00 0.00 95 1008.5
20260506010906 59 0.0 0.0 0.00 0.00 0.00 95 1008.6
20260506005904 59 0.0 0.0 0.00 0.00 0.00 95 1008.5
20260506004905 59 0.0 0.0 0.00 0.00 0.00 97 1008.5
20260506003904 59 0.0 0.0 0.00 0.00 0.00 95 1008.7
20260506002905 60 0.0 0.0 0.00 0.00 0.00 94 1008.7
20260506001909 59 0.0 0.0 0.00 0.00 0.00 96 1008.8
20260505235905 60 0.0 0.0 0.00 0.00 0.00 95 1008.9
20260505234905 60 0.0 0.0 0.00 0.00 0.00 95 1009.2
20260505233904 60 0.0 0.0 0.00 0.00 0.00 95 1009.2
20260505232905 60 0.0 0.0 0.00 0.00 0.00 95 1009.2
20260505231905 60 0.0 0.0 0.00 0.00 0.00 97 1009.3
20260505230906 60 0.0 0.0 0.00 0.00 0.00 96 1009.4
20260505225907 60 0.0 0.0 0.00 0.00 0.00 95 1009.4
20260505224906 60 0.0 0.0 0.00 0.00 0.00 95 1009.5
20260505223906 60 0.0 0.0 0.00 0.00 0.00 94 1009.4
20260505222905 60 0.0 0.0 0.00 0.00 0.00 96 1009.5
20260505221905 60 0.0 0.0 0.00 0.00 0.00 94 1009.6
20260505220904 60 0.0 0.0 0.00 0.00 0.00 93 1009.1
20260505215904 60 0.0 0.0 0.00 0.00 0.00 94 1009.7
20260505214909 61 0.0 0.0 0.00 0.00 0.00 93 1009.6
20260505212908 61 0.0 0.0 0.00 0.00 0.00 92 1009.8
20260505210910 61 0.0 0.0 0.00 0.00 0.00 92 1009.9
20260505204904 61 0.0 0.0 0.00 0.00 0.00 93 1010.0
20260505203909 61 0.0 0.0 0.00 0.00 0.00 93 1010.1
20260505201907 61 0.0 0.0 0.00 0.00 0.00 91 1010.0
20260505200910 61 0.0 0.0 0.00 0.00 0.00 91 1010.0
20260505195907 61 0.0 0.0 0.00 0.00 0.00 91 1010.0
20260505194904 61 0.0 0.0 0.00 0.00 0.00 91 1009.9
20260505193905 61 0.0 0.0 0.00 0.00 0.00 91 1009.8
20260505192910 61 0.0 0.0 0.00 0.00 0.00 91 1009.9
20260505185904 61 0.0 0.0 0.00 0.00 0.00 90 1009.8
20260505184904 61 0.0 0.0 0.00 0.00 0.00 90 1009.8
20260505183905 62 0.0 0.0 0.00 0.00 0.00 89 1009.8
20260505182904 62 0.0 0.0 0.00 0.00 0.00 89 1009.9
20260505181904 62 0.0 0.0 0.00 0.00 0.00 88 1009.8
20260505180904 62 0.0 0.0 0.00 0.00 0.00 88 1009.9
20260505175905 62 0.0 0.0 0.00 0.00 0.00 88 1009.8
20260505174906 62 0.0 0.0 0.00 0.00 0.00 87 1009.8
20260505173906 62 0.0 0.0 0.00 0.00 0.00 87 1009.8
20260505172906 62 0.0 0.0 0.00 0.00 0.00 86 1009.8
20260505171905 62 0.0 0.0 0.00 0.00 0.00 86 1009.9
20260505170904 62 0.0 0.0 0.00 0.00 0.00 87 1009.9
20260505165905 62 0.0 0.0 0.00 0.00 0.00 85 1009.9
20260505164904 62 0.0 0.0 0.00 0.00 0.00 84 1010.0
20260505163904 63 0.0 0.0 0.00 0.00 0.00 83 1010.0
20260505162905 62 0.0 0.0 0.00 0.00 0.00 84 1010.1
20260505161905 63 0.0 0.0 0.00 0.00 0.00 83 1010.1
20260505160905 63 0.0 0.0 0.00 0.00 0.00 84 1010.1
20260505152904 65 0.0 0.0 0.00 0.00 0.00 74 1009.7
20260505151909 66 0.0 0.0 0.00 0.00 0.00 72 1009.5
20260505123904 68 0.0 0.0 0.00 0.00 0.00 64 1010.2
20260505122904 68 0.0 0.0 0.00 0.00 0.00 64 1010.4
20260505121904 68 0.0 0.0 0.00 0.00 0.00 63 1010.4
20260505120904 68 0.0 0.0 0.00 0.00 0.00 62 1010.5
20260505115906 68 0.0 0.0 0.00 0.00 0.00 62 1010.7
20260505114906 68 0.0 0.0 0.00 0.00 0.00 63 1010.3
20260505113909 68 0.0 0.0 0.00 0.00 0.00 63 1010.9
20260505111905 69 0.0 0.0 0.00 0.00 0.00 63 1011.0
20260505110910 69 0.0 0.0 0.00 0.00 0.00 62 1011.1
20260505101908 72 0.0 0.0 0.00 0.00 0.00 60 1011.1
20260505094905 70 0.0 0.0 0.00 0.00 0.00 70 1011.4
20260505093905 69 0.0 0.0 0.00 0.00 0.00 71 1011.5
20260505092906 69 0.0 0.0 0.00 0.00 0.00 71 1011.7
20260505091904 68 0.0 0.0 0.00 0.00 0.00 73 1011.7
20260505090905 67 0.0 0.0 0.00 0.00 0.00 74 1011.9
20260505085909 66 0.0 0.0 0.00 0.00 0.00 77 1012.1
20260505083909 65 0.0 0.0 0.00 0.00 0.00 78 1012.1
20260505081904 65 0.0 0.0 0.00 0.00 0.00 78 1012.3
20260505080909 64 0.0 0.0 0.00 0.00 0.00 80 1012.4